Meteo Giornale » Osservazioni meteo Italia » Cagliari-Elmas

ore: 20:20 - Osservazioni Meteo Cagliari-Elmas
Lat. 39° 15' N Lon. 9° 4' E Alt. 4 metri s.l.m.

sereno Europe/Rome

9 °C

Sereno

Temp. 24 Ore

9 °C

16 °C

Nord/NOvest

9.3 Km/h

Dew point 4 °C

Umidità 70 %

Visibilità  10 Km

Il sole sorge alle ore 07:30

Il sole tramonta alle ore 17:02

Data e Ora Cielo e Fenomeni T °C DP °C Um. % Pres. hPa Vis. km Vento km/h
Oggi h: 20:20 sereno Sereno 9 4 70 1015 10 N/NO 9.3
Oggi h: 19:50 sereno Sereno 10 4 66 1015 10 N/NO 11.1
Oggi h: 19:20 sereno Sereno 10 4 66 1015 10 N/NO 11.1
Oggi h: 18:50 sereno Sereno 12 4 57 1014 10 N 13
Oggi h: 18:20 sereno Sereno 13 4 54 1014 10 N 20.3
Oggi h: 17:50 sereno Sereno 13 4 54 1013 10 N/NO 22.2
Oggi h: 17:20 sereno Sereno 14 5 54 1012 10 N/NO 22.2
Oggi h: 16:50 sereno Sereno 15 4 47 1012 10 N/NO 25.9
Oggi h: 16:20 poco_nuvoloso Poco Nuvoloso 16 4 44 1012 10 N/NO 29.6
Oggi h: 15:50 poco_nuvoloso Poco Nuvoloso 16 6 51 1011 10 NO 29.6
Oggi h: 15:20 poco_nuvoloso Poco Nuvoloso 16 7 55 1011 10 NO 27.8
Oggi h: 14:50 poco_nuvoloso Poco Nuvoloso 16 6 51 1011 10 NO 29.6
Oggi h: 14:20 poco_nuvoloso Poco Nuvoloso 16 7 55 1011 10 NO 27.8
Oggi h: 13:50 poco_nuvoloso Poco Nuvoloso 16 7 55 1011 10 NO 31.5
Oggi h: 13:20 sereno Sereno 15 7 58 1011 10 N/NO 29.6
Oggi h: 12:50 sereno Sereno 15 7 58 1012 10 NO 27.8
Oggi h: 12:20 sereno Sereno 14 7 62 1012 10 NO 25.9
Oggi h: 11:50 sereno Sereno 15 5 51 1012 10 N/NO 29.6
Oggi h: 11:20 sereno Sereno 14 7 62 1012 10 NO 24
Oggi h: 10:50 sereno Sereno 14 8 67 1012 10 NO 20.3
Oggi h: 10:20 sereno Sereno 13 8 71 1012 10 N/NO 25.9
Oggi h: 09:50 poco_nuvoloso Poco Nuvoloso 11 9 87 1012 10 N/NO 18.5
Oggi h: 09:20 sereno Sereno 10 9 93 1012 10 NO 11.1
Oggi h: 08:50 sereno Sereno 10 8 87 1012 10 NO 13
Oggi h: 08:20 poco_nuvoloso Poco Nuvoloso 10 8 87 1011 10 NO 18.5
Oggi h: 07:50 poco_nuvoloso Poco Nuvoloso 10 8 87 1011 10 NO 22.2
Oggi h: 07:20 coperto_pioggia Pioggia Debole 10 8 87 1011 10 NO 22.2
Oggi h: 06:50 poco_nuvoloso Poco Nuvoloso 10 6 76 1010 10 O/NO 18.5
Oggi h: 06:20 nuvoloso Nuvoloso 11 6 71 1010 10 NO 24
Oggi h: 05:50 nuvoloso Nuvoloso 11 6 71 1011 10 NO 18.5
Oggi h: 05:20 nuvoloso Nuvoloso 11 7 76 1011 10 NO 24
Oggi h: 04:50 nuvoloso Nuvoloso 12 6 66 1011 10 NO 25.9
Oggi h: 04:20 nuvoloso Nuvoloso 12 7 71 1011 10 O/NO 22.2
Oggi h: 03:20 coperto_pioggia Pioviggine Leggera 12 7 71 1012 4 O/NO 20.3
Oggi h: 02:50 coperto_pioggia Pioviggine Leggera 13 6 62 1012 10 O/NO 24
Oggi h: 02:20 poco_nuvoloso Poco Nuvoloso 13 7 66 1012 10 NO 25.9
Oggi h: 01:50 nuvoloso Nuvoloso 13 7 66 1012 10 NO 33.3
Oggi h: 01:20 nuvoloso Nuvoloso 13 7 66 1012 10 NO 24
Oggi h: 00:50 poco_nuvoloso Poco Nuvoloso 13 7 66 1013 10 NO 16.7
Oggi h: 00:20 poco_nuvoloso Poco Nuvoloso 13 7 66 1013 10 O/NO 24
Ieri h: 23:50 poco_nuvoloso Poco Nuvoloso 13 7 66 1013 10 NO 29.6
Ieri h: 23:20 nuvoloso Nuvoloso 13 7 66 1013 10 NO 29.6
Ieri h: 22:50 nuvoloso Nuvoloso 13 8 71 1013 10 NO 24
Ieri h: 22:20 nuvoloso_piovaschi Debole Rovescio di Pioggia 13 8 71 1013 10 N/NO 33.3
Ieri h: 21:50 poco_nuvoloso Poco Nuvoloso 14 8 67 1013 10 NO 27.8
Ieri h: 21:20 poco_nuvoloso Poco Nuvoloso 13 8 71 1013 10 NO 27.8
Ieri h: 20:50 poco_nuvoloso Poco Nuvoloso 13 8 71 1013 10 O/NO 25.9
Ieri h: 20:20 poco_nuvoloso Poco Nuvoloso 12 8 76 1014 10 O/NO 22.2
Ieri h: 19:50 poco_nuvoloso Poco Nuvoloso 12 9 81 1014 10 NO 18.5